TimeCST,TemperatureF,Dew PointF,Humidity,Sea Level PressureIn,VisibilityMPH,Wind Direction,Wind SpeedMPH,Gust SpeedMPH,PrecipitationIn,Events,Conditions,WindDirDegrees,DateUTC
12:00 AM,27,23,79,30.21,,SE,13.8,,,,,140,2012-10-12 06:00:00
12:00 AM,26.8,23.2,86,30.21,-9999.0,SE,13.8,19.6,N/A,,Unknown,140,2012-10-12 06:00:00
1:00 AM,28.9,24.3,83,30.18,-9999.0,SSE,13.8,-,N/A,,Unknown,150,2012-10-12 07:00:00
2:00 AM,30.9,25.2,79,30.14,-9999.0,SE,15.0,-,N/A,,Unknown,140,2012-10-12 08:00:00
3:00 AM,31.3,26.2,82,30.10,-9999.0,SE,12.7,-,N/A,,Unknown,140,2012-10-12 09:00:00
4:00 AM,29.3,26.1,88,30.06,-9999.0,SE,12.7,-,N/A,,Unknown,140,2012-10-12 10:00:00
5:00 AM,30.6,26.8,86,30.03,-9999.0,SE,13.8,-,N/A,,Unknown,140,2012-10-12 11:00:00
6:00 AM,31,27,79,29.99,,SSE,15.0,,,,,150,2012-10-12 12:00:00
6:00 AM,31.1,27.0,85,29.99,-9999.0,SSE,15.0,-,N/A,,Unknown,150,2012-10-12 12:00:00
7:00 AM,31.3,27.1,85,29.96,-9999.0,SE,13.8,-,N/A,,Unknown,140,2012-10-12 13:00:00
8:00 AM,31.3,27.7,87,29.94,-9999.0,SE,11.5,-,N/A,,Unknown,130,2012-10-12 14:00:00
10:00 AM,39.7,31.5,72,29.88,-9999.0,South,18.4,-,N/A,,Unknown,180,2012-10-12 16:00:00
11:00 AM,45.1,33.4,64,29.84,-9999.0,South,15.0,20.7,N/A,,Unknown,180,2012-10-12 17:00:00
1:00 PM,52.3,35.2,52,29.75,-9999.0,South,11.5,17.3,N/A,,Unknown,190,2012-10-12 19:00:00
2:00 PM,55.9,35.6,46,29.73,-9999.0,SSW,10.4,-,N/A,,Unknown,200,2012-10-12 20:00:00
3:00 PM,57.7,35.2,43,29.70,-9999.0,SSW,9.2,-,N/A,,Unknown,200,2012-10-12 21:00:00
4:00 PM,59.4,34.9,40,29.67,-9999.0,SSW,10.4,-,N/A,,Unknown,200,2012-10-12 22:00:00
5:00 PM,58.6,35.4,42,29.66,-9999.0,South,9.2,-,N/A,,Unknown,190,2012-10-12 23:00:00
6:00 PM,49,36,49,29.65,,SSE,8.1,,,,,150,2012-10-13 00:00:00
6:00 PM,49.1,35.6,60,29.65,-9999.0,SSE,8.1,-,N/A,,Unknown,150,2012-10-13 00:00:00
7:00 PM,43.2,34.2,71,29.66,-9999.0,SE,3.5,-,N/A,,Unknown,140,2012-10-13 01:00:00
9:00 PM,41.9,34.9,76,29.63,-9999.0,SSE,8.1,-,N/A,,Unknown,150,2012-10-13 03:00:00
10:00 PM,39.7,34.2,80,29.62,-9999.0,SSE,6.9,-,N/A,,Unknown,160,2012-10-13 04:00:00
11:00 PM,36.1,31.6,84,29.63,-9999.0,South,6.9,-,N/A,,Unknown,170,2012-10-13 05:00:00